Wiley Ford, WV

4:35 AM EST on February 23, 2017 (GMT -0500)
Greater Cumberland Regional

Weather History for KCBE - April, 2013

Change the Weather History Date:

Thursday, April 18, 2013

  Actual Average (KMRB) Record (KMRB)
Temperature  
Mean Temperature 70 °F -  
Max Temperature 78 °F 66 °F 92 °F (1976)
Min Temperature 62 °F 42 °F 23 °F (1928)
Cooling Degree Days 5    
Growing Degree Days 20 (Base 50)    
Moisture  
Dew Point 58 °F    
Average Humidity 72    
Maximum Humidity 88    
Minimum Humidity 51    
Precipitation  
Precipitation 0.00 in - - ()
Sea Level Pressure  
Sea Level Pressure 30.10 in    
Wind  
Wind Speed 6 mph (SSE)    
Max Wind Speed 23 mph    
Max Gust Speed 30 mph    
Visibility 10 miles    
Events      
Averages and records for this station are not official NWS values.
T = Trace of Precipitation, MM = Missing Value Source: NWS Daily Summary

Daily Weather History Graph

Daily Weather History Graph

Search for Another Location

Airport or City:

Trip Planner

Search our weather history database for the weather conditions in past years. The results will help you decide how hot, cold, wet, or windy it might be!

Date:

Astronomy

Apr. 18, 2013 Rise Set
Actual Time 6:32 AM EDT 7:56 PM EDT
Civil Twilight 6:04 AM EDT 8:24 PM EDT
Nautical Twilight 5:31 AM EDT 8:58 PM EDT
Astronomical Twilight 4:55 AM EDT 9:33 PM EDT
Moon 12:43 PM EDT (4/18) 2:09 AM EDT (4/18)
Length of Visible Light 14h 19m
Length of Day
13h 23m
First Quarter, 51% of the Moon is Illuminated
Apr 18
First Quarter
Apr 25
Full
May 2
Last Quarter
May 9
New
May 18
First Quarter

Hourly Weather History & Observations

Time (EDT) Temp. Dew Point Humidity Pressure Visibility Wind Dir Wind Speed Gust Speed Precip Events Conditions
12:05 AM 64.4 °F 55.4 °F 73% 30.23 in 10.0 mi Calm Calm - N/A   Overcast
12:25 AM 64.4 °F 55.4 °F 73% 30.22 in 10.0 mi SE 4.6 mph - N/A   Overcast
12:45 AM 64.4 °F 55.4 °F 73% 30.23 in 10.0 mi Calm Calm - N/A   Overcast
1:05 AM 64.4 °F 55.4 °F 73% 30.24 in 10.0 mi Calm Calm - N/A   Overcast
1:25 AM 64.4 °F 55.4 °F 73% 30.23 in 10.0 mi Calm Calm - N/A   Mostly Cloudy
1:45 AM 64.4 °F 55.4 °F 73% 30.23 in 10.0 mi Calm Calm - N/A   Mostly Cloudy
2:05 AM 64.4 °F 55.4 °F 73% 30.23 in 10.0 mi Calm Calm - N/A   Mostly Cloudy
2:25 AM 64.4 °F 55.4 °F 73% 30.22 in 10.0 mi SE 4.6 mph - N/A   Mostly Cloudy
2:45 AM 62.6 °F 57.2 °F 82% 30.21 in 10.0 mi SE 3.5 mph - N/A   Mostly Cloudy
3:05 AM 62.6 °F 57.2 °F 82% 30.20 in 10.0 mi Calm Calm - N/A   Mostly Cloudy
3:25 AM 62.6 °F 57.2 °F 82% 30.19 in 10.0 mi Calm Calm - N/A   Overcast
3:45 AM 62.6 °F 57.2 °F 82% 30.19 in 10.0 mi SSE 4.6 mph - N/A   Mostly Cloudy
4:05 AM 62.6 °F 59.0 °F 88% 30.18 in 10.0 mi Calm Calm - N/A   Mostly Cloudy
4:25 AM 62.6 °F 59.0 °F 88% 30.18 in 10.0 mi SE 5.8 mph - N/A   Mostly Cloudy
4:45 AM 62.6 °F 59.0 °F 88% 30.17 in 10.0 mi SSE 5.8 mph - N/A   Mostly Cloudy
5:05 AM 62.6 °F 59.0 °F 88% 30.17 in 10.0 mi South 4.6 mph - N/A   Mostly Cloudy
5:25 AM 62.6 °F 59.0 °F 88% 30.17 in 10.0 mi SSE 5.8 mph - N/A   Overcast
5:45 AM 62.6 °F 59.0 °F 88% 30.15 in 10.0 mi SE 9.2 mph - N/A   Overcast
6:05 AM 62.6 °F 59.0 °F 88% 30.16 in 10.0 mi SSE 5.8 mph - N/A   Overcast
6:26 AM 62.6 °F 59.0 °F 88% 30.16 in 10.0 mi SE 5.8 mph - N/A   Overcast
6:46 AM 62.6 °F 59.0 °F 88% 30.17 in 10.0 mi SSE 4.6 mph - N/A   Overcast
7:06 AM 62.6 °F 59.0 °F 88% 30.18 in 10.0 mi SSE 5.8 mph - N/A   Overcast
7:26 AM 62.6 °F 59.0 °F 88% 30.18 in 10.0 mi SE 5.8 mph - N/A   Overcast
7:46 AM 62.6 °F 59.0 °F 88% 30.18 in 10.0 mi ESE 3.5 mph - N/A   Overcast
8:06 AM 62.6 °F 59.0 °F 88% 30.19 in 7.0 mi South 6.9 mph - N/A   Overcast
8:26 AM 62.6 °F 59.0 °F 88% 30.18 in 10.0 mi SE 8.1 mph - N/A   Mostly Cloudy
8:46 AM 62.6 °F 59.0 °F 88% 30.18 in 7.0 mi SSE 4.6 mph - N/A   Mostly Cloudy
9:06 AM 62.6 °F 59.0 °F 88% 30.18 in 7.0 mi SSE 5.8 mph - N/A   Overcast
9:26 AM 62.6 °F 59.0 °F 88% 30.18 in 7.0 mi Calm Calm - N/A   Mostly Cloudy
9:46 AM 62.6 °F 59.0 °F 88% 30.18 in 7.0 mi SE 4.6 mph - N/A   Mostly Cloudy
10:06 AM 62.6 °F 59.0 °F 88% 30.17 in 7.0 mi SE 5.8 mph - N/A   Overcast
10:26 AM 62.6 °F 59.0 °F 88% 30.17 in 7.0 mi SE 3.5 mph - N/A   Overcast
10:46 AM 62.6 °F 59.0 °F 88% 30.17 in 7.0 mi ESE 4.6 mph - N/A   Overcast
11:06 AM 64.4 °F 60.8 °F 88% 30.17 in 7.0 mi SE 3.5 mph - N/A   Overcast
11:26 AM 64.4 °F 60.8 °F 88% 30.16 in 7.0 mi ESE 4.6 mph - N/A   Overcast
11:46 AM 64.4 °F 60.8 °F 88% 30.15 in 10.0 mi ESE 4.6 mph - N/A   Overcast
12:06 PM 66.2 °F 60.8 °F 83% 30.14 in 10.0 mi East 5.8 mph - N/A   Overcast
12:26 PM 68.0 °F 60.8 °F 78% 30.12 in 10.0 mi ESE 8.1 mph - N/A   Overcast
12:46 PM 69.8 °F 60.8 °F 73% 30.11 in 10.0 mi SE 6.9 mph - N/A   Mostly Cloudy
1:06 PM 71.6 °F 60.8 °F 69% 30.09 in 10.0 mi ESE 4.6 mph - N/A   Mostly Cloudy
1:26 PM 71.6 °F 62.6 °F 73% 30.07 in 10.0 mi ESE 6.9 mph - N/A   Mostly Cloudy
1:46 PM 73.4 °F 62.6 °F 69% 30.05 in 10.0 mi SE 12.7 mph - N/A   Mostly Cloudy
2:06 PM 77.0 °F 62.6 °F 61% 30.04 in 10.0 mi SE 16.1 mph 20.7 mph N/A   Scattered Clouds
2:26 PM 77.0 °F 62.6 °F 61% 30.03 in 10.0 mi SE 11.5 mph 21.9 mph N/A   Scattered Clouds
2:47 PM 78.8 °F 60.8 °F 54% 30.02 in 10.0 mi South 15.0 mph 20.7 mph N/A   Scattered Clouds
3:07 PM 78.8 °F 59.0 °F 51% 30.02 in 10.0 mi South 18.4 mph 26.5 mph N/A   Scattered Clouds
3:27 PM 78.8 °F 59.0 °F 51% 30.01 in 10.0 mi South 17.3 mph - N/A   Mostly Cloudy
3:47 PM 78.8 °F 59.0 °F 51% 30.00 in 10.0 mi SSE 12.7 mph 23.0 mph N/A   Mostly Cloudy
4:07 PM 78.8 °F 59.0 °F 51% 29.99 in 10.0 mi SSE 17.3 mph 23.0 mph N/A   Mostly Cloudy
4:27 PM 78.8 °F 59.0 °F 51% 30.00 in 10.0 mi South 12.7 mph 20.7 mph N/A   Mostly Cloudy
4:47 PM 77.0 °F 59.0 °F 54% 29.99 in 10.0 mi SSE 17.3 mph 21.9 mph N/A   Mostly Cloudy
5:07 PM 77.0 °F 59.0 °F 54% 29.99 in 10.0 mi South 15.0 mph 23.0 mph N/A   Mostly Cloudy
5:27 PM 77.0 °F 59.0 °F 54% 29.99 in 10.0 mi South 18.4 mph 25.3 mph N/A   Scattered Clouds
5:47 PM 77.0 °F 59.0 °F 54% 29.99 in 10.0 mi SSE 23.0 mph 29.9 mph N/A   Scattered Clouds
6:07 PM 77.0 °F 59.0 °F 54% 29.99 in 10.0 mi SSE 16.1 mph 23.0 mph N/A   Scattered Clouds
6:27 PM 75.2 °F 57.2 °F 53% 30.00 in 10.0 mi SSE 16.1 mph 26.5 mph N/A   Scattered Clouds
6:47 PM 75.2 °F 57.2 °F 53% 30.00 in 10.0 mi South 13.8 mph 21.9 mph N/A   Scattered Clouds
7:07 PM 75.2 °F 57.2 °F 53% 29.99 in 10.0 mi South 15.0 mph 25.3 mph N/A   Mostly Cloudy
7:27 PM 73.4 °F 55.4 °F 53% 29.99 in 10.0 mi South 16.1 mph 23.0 mph N/A   Scattered Clouds
7:47 PM 73.4 °F 55.4 °F 53% 29.98 in 10.0 mi SSE 15.0 mph 23.0 mph N/A   Clear
8:07 PM 71.6 °F 57.2 °F 60% 29.98 in 10.0 mi SSE 11.5 mph 21.9 mph N/A   Clear
8:27 PM 71.6 °F 59.0 °F 64% 29.98 in 10.0 mi SSE 13.8 mph 17.3 mph N/A   Clear
8:47 PM 71.6 °F 59.0 °F 64% 29.98 in 10.0 mi SSE 8.1 mph - N/A   Clear
9:07 PM 71.6 °F 59.0 °F 64% 29.98 in 10.0 mi SSE 10.4 mph 16.1 mph N/A   Clear
9:27 PM 71.6 °F 57.2 °F 60% 29.99 in 10.0 mi SSE 11.5 mph - N/A   Clear
9:47 PM 69.8 °F 57.2 °F 64% 29.98 in 10.0 mi SSE 8.1 mph - N/A   Clear
10:07 PM 69.8 °F 55.4 °F 60% 29.98 in 10.0 mi SSE 6.9 mph - N/A   Clear
10:27 PM 69.8 °F 55.4 °F 60% 29.98 in 10.0 mi South 8.1 mph - N/A   Clear
10:47 PM 68.0 °F 55.4 °F 64% 29.97 in 10.0 mi SSE 8.1 mph - N/A   Clear
11:07 PM 68.0 °F 55.4 °F 64% 29.96 in 10.0 mi South 5.8 mph - N/A   Clear
11:27 PM 64.4 °F 55.4 °F 73% 29.96 in 10.0 mi SSW 4.6 mph - N/A   Clear
11:47 PM 64.4 °F 55.4 °F 73% 29.95 in 10.0 mi South 5.8 mph - N/A   Clear